• In Hungary
  • List of Countries
  • For 7 days
  • Water Temperature
  • Satellite Maps
  • Weather Map
  • News
  • Weather Widgets
  • user-avatar
    Login

    Hourly Weather Blachow

    Today, 20 September, Thursday

    Time Temperature Precipitation Wind Pressure Humidity
    00:00 +19°C° 0 mm 2 mps 745 mmHg 68%
    01:00 +18°C° 0 mm 2 mps 744 mmHg 68%
    02:00 +18°C° 0 mm 2 mps 744 mmHg 69%
    03:00 +18°C° 0 mm 2 mps 744 mmHg 70%
    04:00 +17°C° 0 mm 2 mps 744 mmHg 71%
    05:00 +18°C° 0 mm 2 mps 745 mmHg 70%
    06:00 +18°C° 0 mm 2 mps 745 mmHg 69%
    07:00 +19°C° 0 mm 2 mps 745 mmHg 65%
    08:00 +21°C° 0 mm 2 mps 745 mmHg 59%
    09:00 +24°C° 0 mm 2 mps 745 mmHg 54%
    10:00 +26°C° 0 mm 2 mps 745 mmHg 48%
    11:00 +27°C° 0 mm 2 mps 745 mmHg 45%
    12:00 +28°C° 0 mm 2 mps 744 mmHg 42%
    13:00 +29°C° 0 mm 2 mps 744 mmHg 39%
    14:00 +29°C° 0 mm 2 mps 744 mmHg 39%
    15:00 +29°C° 0 mm 1 mps 744 mmHg 40%
    16:00 +29°C° 0 mm 1 mps 743 mmHg 40%
    17:00 +27°C° 0 mm 1 mps 743 mmHg 45%
    18:00 +25°C° 0 mm 2 mps 743 mmHg 49%
    19:00 +23°C° 0 mm 2 mps 743 mmHg 53%
    20:00 +23°C° 0 mm 2 mps 743 mmHg 55%
    21:00 +21°C° 0 mm 2 mps 743 mmHg 58%
    22:00 +20°C° 0 mm 2 mps 743 mmHg 60%
    23:00 +20°C° 0 mm 2 mps 743 mmHg 62%

    Tomorrow, 21 September, Friday

    Time Temperature Precipitation Wind Pressure Humidity
    00:00 +19°C° 0 mm 2 mps 743 mmHg 64%
    01:00 +19°C° 0 mm 2 mps 743 mmHg 67%
    02:00 +18°C° 0 mm 2 mps 742 mmHg 68%
    03:00 +18°C° 0 mm 3 mps 742 mmHg 69%
    04:00 +18°C° 0 mm 3 mps 742 mmHg 70%
    05:00 +18°C° 0 mm 3 mps 741 mmHg 68%
    06:00 +18°C° 0 mm 3 mps 741 mmHg 66%
    07:00 +19°C° 0 mm 3 mps 741 mmHg 63%
    08:00 +21°C° 0 mm 4 mps 741 mmHg 56%
    09:00 +23°C° 0 mm 4 mps 741 mmHg 49%
    10:00 +26°C° 0 mm 5 mps 740 mmHg 42%
    11:00 +27°C° 0 mm 5 mps 740 mmHg 39%
    12:00 +28°C° 0 mm 6 mps 739 mmHg 37%
    13:00 +29°C° 0 mm 6 mps 739 mmHg 35%
    14:00 +28°C° 0 mm 6 mps 738 mmHg 37%
    15:00 +28°C° 0 mm 6 mps 738 mmHg 39%
    16:00 +27°C° 0 mm 5 mps 737 mmHg 42%
    17:00 +26°C° 0 mm 5 mps 737 mmHg 45%
    18:00 +25°C° 0 mm 5 mps 737 mmHg 47%
    19:00 +22°C° 0 mm 5 mps 737 mmHg 50%
    20:00 +22°C° 0.4 mm 5 mps 737 mmHg 54%
    21:00 +22°C° 0.4 mm 5 mps 738 mmHg 58%
    22:00 +21°C° 0.4 mm 5 mps 738 mmHg 62%
    23:00 +19°C° 0.5 mm 6 mps 739 mmHg 67%

    Day after tomorrow, 22 September, Saturday

    Time Temperature Precipitation Wind Pressure Humidity
    00:00 +16°C° 0.5 mm 6 mps 740 mmHg 72%
    01:00 +14°C° 0.5 mm 6 mps 741 mmHg 78%
    02:00 +14°C° 0.2 mm 6 mps 742 mmHg 76%
    03:00 +13°C° 0.2 mm 5 mps 742 mmHg 74%
    04:00 +13°C° 0.2 mm 4 mps 743 mmHg 72%
    05:00 +12°C° 0 mm 4 mps 743 mmHg 70%
    06:00 +12°C° 0 mm 4 mps 744 mmHg 69%
    07:00 +12°C° 0 mm 3 mps 744 mmHg 67%
    08:00 +13°C° 0 mm 4 mps 744 mmHg 61%
    09:00 +14°C° 0 mm 4 mps 744 mmHg 54%
    10:00 +15°C° 0 mm 5 mps 744 mmHg 48%
    11:00 +16°C° 0 mm 5 mps 744 mmHg 45%
    12:00 +17°C° 0 mm 5 mps 744 mmHg 42%
    13:00 +17°C° 0 mm 5 mps 744 mmHg 40%
    14:00 +17°C° 0 mm 5 mps 744 mmHg 41%
    15:00 +17°C° 0 mm 5 mps 743 mmHg 42%
    16:00 +18°C° 0 mm 4 mps 743 mmHg 43%
    17:00 +17°C° 0 mm 4 mps 744 mmHg 45%
    18:00 +16°C° 0 mm 3 mps 744 mmHg 48%
    19:00 +15°C° 0 mm 2 mps 744 mmHg 50%
    20:00 +13°C° 0 mm 3 mps 744 mmHg 52%
    21:00 +13°C° 0 mm 3 mps 744 mmHg 54%
    22:00 +12°C° 0 mm 3 mps 745 mmHg 56%
    23:00 +12°C° 0 mm 3 mps 745 mmHg 57%

    23 September, Sunday

    Time Temperature Precipitation Wind Pressure Humidity
    00:00 +12°C° 0 mm 3 mps 745 mmHg 59%
    01:00 +11°C° 0 mm 3 mps 744 mmHg 60%
    02:00 +11°C° 0 mm 3 mps 744 mmHg 61%
    03:00 +11°C° 0 mm 3 mps 744 mmHg 61%
    04:00 +11°C° 0 mm 3 mps 744 mmHg 61%
    05:00 +11°C° 0 mm 3 mps 744 mmHg 62%
    06:00 +12°C° 0 mm 3 mps 744 mmHg 63%
    07:00 +12°C° 0 mm 3 mps 744 mmHg 63%
    08:00 +13°C° 0 mm 4 mps 743 mmHg 61%
    09:00 +14°C° 0 mm 4 mps 743 mmHg 59%
    10:00 +15°C° 0 mm 5 mps 743 mmHg 57%
    11:00 +15°C° 0 mm 5 mps 742 mmHg 58%
    12:00 +15°C° 0 mm 5 mps 741 mmHg 59%
    13:00 +15°C° 0 mm 6 mps 740 mmHg 61%
    14:00 +16°C° 0 mm 6 mps 739 mmHg 62%
    15:00 +16°C° 0 mm 7 mps 738 mmHg 63%
    16:00 +16°C° 0 mm 7 mps 737 mmHg 64%
    17:00 +16°C° 0.3 mm 8 mps 736 mmHg 68%
    18:00 +16°C° 0.3 mm 8 mps 735 mmHg 72%
    19:00 +16°C° 0.3 mm 9 mps 735 mmHg 76%
    20:00 +16°C° 1.1 mm 9 mps 734 mmHg 75%
    21:00 +17°C° 1.1 mm 9 mps 733 mmHg 74%
    22:00 +17°C° 1.1 mm 9 mps 732 mmHg 72%
    23:00 +17°C° 0.2 mm 9 mps 731 mmHg 74%

    24 September, Monday

    Time Temperature Precipitation Wind Pressure Humidity
    00:00 +17°C° 0.2 mm 9 mps 730 mmHg 75%
    01:00 +18°C° 0.2 mm 8 mps 729 mmHg 77%
    02:00 +17°C° 1.3 mm 8 mps 730 mmHg 78%
    03:00 +16°C° 1.3 mm 8 mps 730 mmHg 80%
    04:00 +15°C° 1.3 mm 8 mps 730 mmHg 82%
    05:00 +13°C° 0.4 mm 9 mps 732 mmHg 81%
    06:00 +11°C° 0.4 mm 10 mps 734 mmHg 80%
    07:00 +9°C° 0.4 mm 10 mps 736 mmHg 78%
    08:00 +8°C° 0.1 mm 10 mps 737 mmHg 76%
    09:00 +8°C° 0.1 mm 10 mps 738 mmHg 73%
    10:00 +8°C° 0.1 mm 10 mps 739 mmHg 70%
    11:00 +9°C° 0.1 mm 10 mps 740 mmHg 65%
    12:00 +11°C° 0.1 mm 10 mps 741 mmHg 60%
    13:00 +12°C° 0.1 mm 10 mps 743 mmHg 54%
    14:00 +11°C° 0.2 mm 10 mps 743 mmHg 55%
    15:00 +11°C° 0.2 mm 9 mps 744 mmHg 56%
    16:00 +11°C° 0.2 mm 9 mps 744 mmHg 57%
    17:00 +10°C° 0.1 mm 8 mps 745 mmHg 62%
    18:00 +9°C° 0.1 mm 7 mps 746 mmHg 66%
    19:00 +8°C° 0.1 mm 5 mps 747 mmHg 71%
    20:00 +8°C° 0 mm 5 mps 747 mmHg 72%
    21:00 +7°C° 0 mm 5 mps 748 mmHg 73%
    22:00 +7°C° 0 mm 5 mps 749 mmHg 74%
    23:00 +7°C° 0 mm 4 mps 749 mmHg 74%

    25 September, Tuesday

    Time Temperature Precipitation Wind Pressure Humidity
    00:00 +6°C° 0 mm 4 mps 750 mmHg 74%
    01:00 +6°C° 0 mm 4 mps 750 mmHg 75%
    02:00 +6°C° 0 mm 4 mps 750 mmHg 75%
    03:00 +6°C° 0 mm 5 mps 751 mmHg 74%
    04:00 +5°C° 0 mm 5 mps 751 mmHg 74%
    05:00 +5°C° 0 mm 5 mps 751 mmHg 75%
    06:00 +6°C° 0 mm 5 mps 752 mmHg 75%
    07:00 +6°C° 0 mm 5 mps 752 mmHg 76%
    08:00 +7°C° 0 mm 6 mps 752 mmHg 72%
    09:00 +8°C° 0 mm 6 mps 752 mmHg 68%
    10:00 +10°C° 0 mm 6 mps 752 mmHg 64%
    11:00 +10°C° 0.1 mm 6 mps 752 mmHg 60%
    12:00 +11°C° 0.1 mm 7 mps 752 mmHg 57%
    13:00 +12°C° 0.1 mm 7 mps 751 mmHg 54%
    14:00 +12°C° 0 mm 7 mps 751 mmHg 55%
    15:00 +11°C° 0 mm 7 mps 750 mmHg 56%
    16:00 +11°C° 0 mm 7 mps 750 mmHg 57%
    17:00 +11°C° 0.2 mm 7 mps 750 mmHg 61%
    18:00 +10°C° 0.2 mm 7 mps 750 mmHg 64%
    19:00 +10°C° 0.2 mm 7 mps 750 mmHg 68%
    20:00 +9°C° 1.8 mm 6 mps 750 mmHg 74%
    21:00 +9°C° 1.8 mm 6 mps 750 mmHg 80%
    22:00 +8°C° 1.8 mm 5 mps 750 mmHg 86%
    23:00 +8°C° 0.8 mm 5 mps 750 mmHg 87%
    Show more